ARIANE 2 DEB, 28565

Orbit data source: Space-Track

ARIANE 2 DEB, 28565 is space debris in HEO originally from a launch on Fri, 27 Jan 1989 UTC launched from the French Guiana (FRGUI). Debris objects in space refer to the collection of defunct objects orbiting the Earth. Examples of debris include non-operational satellites, rocket bodies, and fragments generated from explosions, collisions, or faulty payload assembly.

Loading next visibility...
ARIANE 2 DEB details
Identifier
28565, 1989-006AG
Orbit
HEO
Last TLE update2 days ago
Origin
Flag of FRArianespace (FR)
ManufacturerEADS/LV
MissionSpacecraft
Bus & MotorUnknown
MassUnknown
Launch date (UTC)
1989-01-27 (36 years ago)
Launch vehicleUnknown
Launch site
French Guiana (FRGUI)
Object type
Payload
Rocket body
Debris
Shape & HBRUnknown
Radar Cross SectionMedium (>0.1 m² and <1 m²)

Expand to show TLE details & history

TLE from 2 days ago
0 ARIANE 2 DEB
1 28565U 89006AG  25016.91321950  .00001105  00000-0  62675-2 0  9998
2 28565   7.6870 157.3874 7101398 279.3679  13.1909  2.38199432178441
Epoch: 2025-01-16T21:55Z
Definitive object data (Epoch: 2025-01-16T21:55:02.164Z)
Latitude-0.00001°
Longitude71.6856°
Altitude4,095.964 km
Speed7.699 km/s
True Right ascension10h 28m 06s
True Declination0° 00' 00"
Sunlit
Object was in daylight at TLE epoch
Visualization TLE readout
Latitude0.31557°
Longitude73.1202°
Altitude4,170.249 km
Speed7.664 km/s
Apparent Right ascension11h 23m 00s
Apparent Declination-15° 18' 30"
Sunlit
Object is in daylight
Visualization observer readout
Local Sidereal Time01:12:06
Azimuth51.819° ENE
Elevation-55.784°
Doppler factor1
Orbital elements
Apogee altitude34,132.431 km
Perigee altitude488.203 km
Semi-major axis23,688.454 km
Eccentricity0.7101398
Inclination7.687°
RAAN157.3874°
Arg. of periapsis279.3679°
True anomaly80.68195°
Mean anomaly13.1909°
Eccentric anomaly38.54452°
Mean motion0.5953 °/min
BSTAR0.0062675
Orbital period604.73 mins
Loading maneuver chart data...
Loading historical data...
Loading historical data...
Loading historical data...
Loading historical data...
Loading historical data...
Loading historical data...
Loading historical data...

ARIANE 2 DEB Visibility forecast

Observer location: undefined°, undefined

Span
Click to sort rows by Start time (UTC) header in descending order
Start Az.
Max El. time (UTC)
Max El. Az.
Max El.
End time (UTC)
End Az.
551 mins2025-01-19 10:21:58.036Z198.308° SSW2025-01-19 16:32:58.036Z163.464° S37.362°2025-01-19 19:32:58.036Z135.078° SSE
|